QPF
0.02 0.00 0.00 0.00 0.00 0.00 0.00 0.00 0.00 0.00 0.01 0.02 0.04 0.08 0.10 0.13 0.15 0.12 0.06 0.06 0.09 0.08 0.07 0.07 0.09 0.05 0.02 0.00 0.00 0.00 0.00 0.00 0.00 0.00 0.00 0.00 0.00 0.00 0.00 0.00 0.00 0.00 0.00
0.16 0.07 0.01 0.01 0.00 0.00 0.00 0.00 0.00 0.00 0.00 0.02 0.05 0.04 0.07 0.05 0.03 0.02 0.01 0.02 0.03 0.04 0.06 0.07 0.06 0.03 0.01 0.00 0.00 0.00 0.00 0.00 0.00 0.00 0.00 0.00 0.00 0.00 0.00 0.00 0.00 0.00 0.00
0.08 0.12 0.07 0.04 0.01 0.00 0.00 0.00 0.01 0.00 0.02 0.03 0.03 0.01 0.01 0.00 0.00 0.00 0.01 0.03 0.05 0.08 0.09 0.10 0.08 0.04 0.03 0.01 0.01 0.00 0.00 0.00 0.00 0.00 0.00 0.00 0.00 0.00 0.00 0.00 0.00 0.00 0.00
0.01 0.04 0.10 0.11 0.04 0.03 0.01 0.00 0.01 0.05 0.05 0.03 0.01 0.00 0.00 0.00 0.01 0.02 0.04 0.08 0.10 0.11 0.12 0.08 0.03 0.01 0.00 0.00 0.00 0.00 0.00 0.00 0.00 0.00 0.00 0.00 0.00 0.00 0.00 0.00 0.00 0.00 0.00
0.00 0.00 0.03 0.06 0.06 0.07 0.04 0.03 0.03 0.05 0.08 0.10 0.07 0.03 0.01 0.01 0.03 0.05 0.07 0.08 0.07 0.07 0.07 0.05 0.03 0.03 0.01 0.00 0.00 0.00 0.00 0.00 0.00 0.00 0.00 0.00 0.00 0.00 0.00 0.00 0.00 0.00 0.00
0.00 0.00 0.00 0.02 0.03 0.04 0.03 0.02 0.01 0.04 0.05 0.06 0.06 0.06 0.03 0.04 0.08 0.07 0.05 0.04 0.06 0.06 0.06 0.04 0.04 0.04 0.02 0.01 0.00 0.00 0.00 0.00 0.00 0.00 0.00 0.00 0.00 0.00 0.00 0.00 0.00 0.00 0.00
0.00 0.00 0.00 0.01 0.01 0.01 0.00 0.00 0.00 0.02 0.04 0.06 0.06 0.04 0.04 0.05 0.08 0.06 0.05 0.02 0.02 0.03 0.03 0.02 0.01 0.01 0.01 0.00 0.00 0.00 0.00 0.00 0.00 0.00 0.00 0.00 0.00 0.00 0.00 0.00 0.00 0.00 0.00
0.00 0.00 0.01 0.01 0.01 0.01 0.00 0.00 0.01 0.01 0.02 0.01 0.02 0.02 0.02 0.05 0.06 0.03 0.03 0.01 0.01 0.01 0.01 0.00 0.00 0.00 0.00 0.00 0.00 0.00 0.00 0.00 0.00 0.00 0.00 0.00 0.00 0.00 0.00 0.00 0.00 0.00 0.00
0.00 0.00 0.01 0.01 0.01 0.00 0.00 0.01 0.01 0.02 0.03 0.02 0.02 0.02 0.03 0.03 0.04 0.02 0.01 0.00 0.00 0.00 0.00 0.00 0.00 0.00 0.00 0.00 0.00 0.00 0.00 0.00 0.00 0.00 0.00 0.00 0.00 0.00 0.00 0.00 0.00 0.00 0.00
0.00 0.00 0.00 0.01 0.01 0.00 0.01 0.02 0.03 0.04 0.03 0.03 0.04 0.03 0.03 0.02 0.03 0.01 0.01 0.00 0.00 0.00 0.00 0.00 0.00 0.00 0.00 0.00 0.00 0.00 0.00 0.00 0.00 0.00 0.00 0.00 0.00 0.00 0.00 0.00 0.00 0.01 0.01
0.00 0.01 0.01 0.01 0.01 0.01 0.02 0.03 0.04 0.03 0.02 0.02 0.02 0.01 0.01 0.01 0.01 0.01 0.00 0.00 0.00 0.00 0.00 0.00 0.00 0.00 0.00 0.00 0.00 0.00 0.00 0.00 0.00 0.00 0.00 0.00 0.00 0.00 0.00 0.00 0.00 0.00 0.01
0.00 0.00 0.00 0.01 0.01 0.02 0.02 0.02 0.02 0.02 0.01 0.01 0.01 0.01 0.01 0.00 0.01 0.01 0.00 0.00 0.00 0.00 0.00 0.00 0.00 0.00 0.00 0.00 0.00 0.00 0.00 0.00 0.00 0.00 0.00 0.00 0.00 0.00 0.00 0.00 0.00 0.00 0.00
0.00 0.00 0.00 0.00 0.01 0.01 0.01 0.01 0.01 0.01 0.01 0.01 0.00 0.00 0.00 0.00 0.00 0.00 0.00 0.00 0.00 0.00 0.00 0.00 0.00 0.00 0.00 0.00 0.00 0.00 0.00 0.00 0.00 0.00 0.00 0.00 0.00 0.00 0.00 0.00 0.00 0.00 0.00
0.00 0.00 0.00 0.00 0.00 0.00 0.00 0.00 0.00 0.00 0.00 0.00 0.00 0.00 0.00 0.00 0.00 0.00 0.00 0.00 0.00 0.00 0.00 0.00 0.00 0.00 0.00 0.00 0.00 0.00 0.00 0.00 0.00 0.00 0.00 0.00 0.00 0.00 0.00 0.00 0.00 0.00 0.00
0.00 0.00 0.00 0.00 0.00 0.00 0.00 0.00 0.00 0.00 0.00 0.00 0.00 0.01 0.01 0.01 0.00 0.00 0.00 0.00 0.00 0.00 0.00 0.00 0.00 0.00 0.00 0.00 0.00 0.00 0.00 0.00 0.00 0.00 0.00 0.00 0.00 0.00 0.00 0.00 0.00 0.00 0.00
0.00 0.00 0.00 0.00 0.00 0.00 0.00 0.00 0.01 0.02 0.03 0.03 0.04 0.03 0.02 0.01 0.00 0.00 0.00 0.00 0.00 0.00 0.00 0.00 0.00 0.00 0.00 0.00 0.00 0.00 0.00 0.00 0.00 0.00 0.00 0.00 0.00 0.00 0.00 0.00 0.00 0.00 0.00
0.00 0.02 0.03 0.04 0.03 0.02 0.03 0.04 0.05 0.04 0.02 0.01 0.00 0.00 0.00 0.00 0.00 0.00 0.00 0.00 0.01 0.00 0.00 0.00 0.00 0.00 0.00 0.00 0.00 0.00 0.00 0.00 0.00 0.00 0.00 0.00 0.00 0.00 0.00 0.00 0.00 0.00 0.00
0.01 0.01 0.01 0.01 0.01 0.01 0.01 0.01 0.01 0.01 0.01 0.03 0.02 0.02 0.03 0.04 0.04 0.04 0.03 0.03 0.03 0.03 0.02 0.01 0.01 0.01 0.01 0.01 0.00 0.00 0.00 0.00 0.00 0.00 0.00 0.00 0.00 0.00 0.00 0.00 0.00 0.00 0.00
0.02 0.03 0.04 0.04 0.04 0.03 0.02 0.02 0.02 0.02 0.03 0.04 0.05 0.05 0.04 0.03 0.03 0.03 0.02 0.02 0.03 0.03 0.03 0.03 0.02 0.02 0.01 0.00 0.00 0.00 0.00 0.00 0.00 0.00 0.00 0.00 0.00 0.00 0.00 0.00 0.00 0.00 0.00
0.06 0.05 0.04 0.02 0.02 0.01 0.01 0.01 0.01 0.02 0.02 0.02 0.02 0.03 0.03 0.02 0.01 0.01 0.01 0.01 0.01 0.01 0.01 0.00 0.00 0.00 0.00 0.00 0.00 0.00 0.00 0.00 0.00 0.00 0.00 0.00 0.00 0.00 0.00 0.00 0.00 0.00 0.00
0.04 0.03 0.02 0.01 0.01 0.00 0.00 0.00 0.00 0.00 0.00 0.01 0.01 0.01 0.01 0.01 0.01 0.01 0.01 0.01 0.00 0.00 0.00 0.00 0.00 0.00 0.00 0.00 0.00 0.00 0.00 0.00 0.00 0.00 0.00 0.00 0.00 0.00 0.00 0.00 0.00 0.00 0.00
0.02 0.01 0.00 0.00 0.00 0.00 0.00 0.00 0.00 0.00 0.00 0.00 0.00 0.00 0.00 0.00 0.00 0.00 0.00 0.00 0.00 0.00 0.00 0.00 0.00 0.00 0.00 0.00 0.00 0.00 0.00 0.00 0.00 0.00 0.00 0.00 0.00 0.00 0.00 0.00 0.00 0.00 0.00
0.00 0.00 0.00 0.00 0.00 0.00 0.00 0.00 0.00 0.00 0.00 0.00 0.00 0.00 0.00 0.00 0.00 0.00 0.00 0.00 0.00 0.00 0.00 0.00 0.00 0.00 0.00 0.00 0.00 0.00 0.00 0.00 0.00 0.00 0.00 0.00 0.00 0.00 0.00 0.00 0.00 0.00 0.00
0.00 0.00 0.00 0.00 0.00 0.00 0.00 0.00 0.00 0.00 0.00 0.00 0.00 0.00 0.00 0.00 0.00 0.00 0.00 0.00 0.00 0.00 0.00 0.00 0.00 0.00 0.00 0.00 0.00 0.00 0.00 0.00 0.00 0.00 0.00 0.01 0.00 0.00 0.00 0.00 0.00 0.00 0.00
0.00 0.00 0.00 0.00 0.00 0.00 0.00 0.00 0.00 0.00 0.00 0.00 0.00 0.00 0.00 0.00 0.00 0.00 0.00 0.00 0.00 0.00 0.00 0.00 0.00 0.00 0.00 0.00 0.00 0.00 0.00 0.00 0.00 0.00 0.01 0.01 0.00 0.00 0.00 0.01 0.00 0.00 0.00
0.00 0.00 0.00 0.00 0.00 0.00 0.00 0.00 0.00 0.00 0.00 0.00 0.00 0.00 0.00 0.00 0.00 0.00 0.00 0.00 0.00 0.00 0.00 0.00 0.00 0.00 0.00 0.00 0.00 0.00 0.00 0.00 0.00 0.00 0.01 0.01 0.00 0.00 0.00 0.01 0.00 0.00 0.00
MSLP
1010.15 1010.99 1011.77 1012.43 1012.83 1012.99 1013.06 1013.03 1013.01 1013.43 1013.81 1014.12 1014.29 1014.72 1015.23 1015.58 1015.79 1016.00 1016.91 1017.32 1017.73 1018.21 1018.55 1018.86 1018.87 1019.57 1020.17 1020.81 1021.26 1022.35 1022.71 1022.84 1023.57 1023.67 1023.70 1023.85 1023.95 1023.66 1023.70 1023.86 1023.94 1023.97 1023.89
1009.77 1010.27 1010.43 1010.92 1011.35 1011.14 1010.89 1011.31 1012.15 1012.89 1012.97 1013.33 1013.94 1014.42 1014.40 1014.62 1014.99 1015.44 1015.93 1016.42 1016.75 1017.67 1017.99 1018.50 1018.61 1019.55 1020.01 1020.67 1021.00 1021.86 1022.46 1022.89 1023.31 1023.81 1023.87 1023.87 1023.85 1023.53 1023.63 1023.81 1023.53 1023.42 1023.47
1008.72 1009.15 1009.72 1010.05 1010.26 1009.84 1010.13 1010.89 1011.51 1012.05 1012.56 1012.93 1013.11 1013.50 1014.00 1014.42 1014.73 1014.87 1015.56 1015.96 1016.30 1016.96 1017.54 1017.83 1018.83 1019.16 1020.02 1020.49 1021.05 1021.65 1022.10 1022.70 1023.23 1023.47 1023.83 1023.83 1023.80 1023.64 1023.61 1023.63 1023.47 1023.29 1023.03
1007.48 1008.24 1008.87 1009.19 1009.18 1009.72 1010.23 1010.63 1010.98 1011.41 1011.82 1012.14 1012.35 1012.71 1013.07 1013.70 1014.20 1014.55 1015.22 1015.65 1016.23 1016.75 1017.30 1017.93 1018.55 1018.88 1019.16 1019.99 1020.97 1021.52 1021.95 1022.79 1023.23 1023.29 1023.87 1024.05 1024.06 1023.75 1023.83 1023.94 1023.49 1023.25 1022.87
1006.44 1007.22 1007.39 1007.82 1008.31 1008.90 1009.32 1009.95 1010.64 1010.89 1011.11 1011.41 1012.00 1012.38 1012.79 1013.33 1013.87 1014.40 1015.06 1015.75 1016.38 1016.82 1017.74 1018.41 1018.91 1019.43 1020.13 1020.38 1020.76 1021.77 1022.28 1022.77 1023.36 1023.70 1023.97 1024.20 1024.18 1024.10 1024.17 1024.04 1023.74 1023.16 1022.61
1005.67 1006.27 1007.00 1007.64 1008.23 1008.67 1009.21 1009.67 1010.11 1010.46 1010.87 1011.26 1011.71 1012.13 1012.86 1013.24 1013.71 1014.27 1014.88 1015.81 1016.34 1017.01 1018.05 1018.79 1019.38 1020.12 1020.28 1021.28 1021.21 1022.00 1022.43 1023.00 1023.38 1023.75 1024.03 1024.12 1024.15 1024.10 1024.09 1024.02 1023.68 1023.05 1022.22
1005.22 1006.01 1006.83 1007.50 1008.22 1008.77 1009.32 1009.81 1010.22 1010.53 1010.96 1011.42 1011.86 1012.37 1012.86 1013.18 1013.97 1014.63 1015.16 1015.95 1016.67 1017.37 1018.06 1019.27 1019.61 1020.67 1020.77 1021.59 1021.95 1022.38 1022.61 1022.73 1023.15 1023.47 1023.84 1024.04 1024.11 1023.95 1023.90 1023.61 1023.33 1023.03 1022.66
1005.53 1006.27 1007.01 1007.57 1008.23 1008.82 1009.45 1009.94 1010.47 1011.00 1011.31 1011.67 1012.14 1012.59 1013.10 1013.80 1014.49 1015.11 1015.53 1016.28 1017.14 1018.01 1018.76 1019.26 1020.08 1020.81 1021.15 1021.59 1021.99 1022.34 1022.60 1022.73 1022.93 1023.08 1023.39 1023.59 1023.74 1023.54 1023.43 1023.03 1022.82 1022.40 1021.82
1005.79 1006.46 1007.18 1007.82 1008.50 1009.19 1009.90 1010.40 1010.85 1011.31 1011.83 1012.33 1012.83 1013.21 1013.71 1014.81 1015.34 1015.69 1016.26 1017.28 1018.18 1019.11 1019.81 1020.21 1020.75 1021.27 1021.60 1021.77 1021.98 1022.31 1022.62 1022.89 1022.93 1022.83 1022.95 1022.97 1022.94 1022.88 1022.76 1022.69 1022.56 1022.25 1021.02
1006.07 1006.79 1007.43 1008.02 1008.67 1009.42 1010.03 1010.72 1011.23 1011.73 1012.47 1013.14 1013.81 1014.41 1015.01 1015.76 1016.25 1016.70 1017.10 1017.83 1018.78 1019.62 1020.40 1020.91 1021.36 1021.69 1021.88 1021.98 1022.24 1022.52 1022.67 1022.80 1022.84 1022.96 1023.09 1023.02 1023.05 1022.94 1022.79 1022.73 1022.57 1022.12 1021.57
1006.56 1007.29 1007.91 1008.49 1009.16 1009.91 1010.63 1011.22 1011.77 1012.62 1013.53 1014.34 1015.02 1015.85 1016.25 1016.66 1017.25 1017.57 1018.05 1018.48 1019.19 1020.02 1020.59 1021.17 1021.54 1021.78 1022.02 1022.18 1022.53 1022.66 1022.75 1023.06 1023.06 1023.09 1023.15 1022.98 1022.82 1022.63 1022.55 1022.51 1022.43 1022.23 1021.57
1007.00 1007.82 1008.57 1009.25 1009.92 1010.60 1011.15 1011.92 1012.65 1013.40 1014.31 1015.32 1016.10 1017.03 1017.67 1018.03 1018.29 1018.58 1018.94 1019.44 1019.83 1020.27 1020.96 1021.47 1021.72 1021.87 1021.96 1022.17 1022.38 1022.66 1023.02 1023.15 1023.38 1023.25 1023.28 1023.11 1022.94 1022.92 1022.75 1022.47 1022.05 1021.57 1021.11
1007.58 1008.69 1009.50 1010.12 1010.68 1011.29 1011.91 1012.69 1013.47 1014.14 1014.91 1015.92 1016.69 1017.70 1018.65 1019.22 1019.47 1019.71 1019.97 1020.16 1020.49 1020.91 1021.40 1021.72 1021.70 1021.76 1021.93 1022.17 1022.50 1022.79 1023.17 1023.54 1023.62 1023.56 1023.49 1023.35 1023.29 1023.07 1022.68 1022.20 1021.72 1021.05 1020.23
1008.58 1009.58 1010.29 1010.93 1011.59 1012.27 1012.81 1013.40 1014.05 1014.72 1015.39 1016.28 1017.23 1018.24 1019.18 1019.95 1020.40 1020.65 1020.77 1020.90 1021.18 1021.44 1021.71 1021.85 1021.99 1022.20 1022.44 1022.70 1022.86 1023.17 1023.46 1023.64 1023.79 1023.71 1023.65 1023.48 1023.22 1022.92 1022.60 1022.16 1021.54 1020.68 1019.58
1009.36 1010.34 1011.12 1011.87 1012.65 1013.61 1014.49 1015.00 1015.29 1015.73 1015.83 1016.49 1017.67 1018.66 1019.57 1020.34 1020.90 1021.11 1021.24 1021.33 1021.51 1021.79 1022.08 1022.33 1022.63 1022.79 1022.92 1023.03 1023.19 1023.44 1023.67 1023.76 1023.84 1023.84 1023.77 1023.49 1023.16 1022.80 1022.50 1021.98 1021.39 1020.53 1019.85
1010.57 1011.62 1012.25 1012.89 1013.70 1014.42 1015.33 1016.31 1016.71 1017.04 1017.23 1017.63 1018.22 1019.07 1019.91 1020.60 1021.15 1021.44 1021.55 1021.70 1021.98 1022.17 1022.46 1022.76 1023.10 1023.26 1023.35 1023.40 1023.47 1023.62 1023.76 1023.92 1023.96 1023.87 1023.73 1023.59 1023.17 1022.71 1022.31 1021.83 1021.39 1020.79 1019.67
1011.87 1012.86 1013.56 1014.17 1014.93 1015.40 1015.99 1017.02 1017.62 1018.18 1018.50 1018.85 1019.28 1019.79 1020.39 1021.10 1021.45 1021.69 1021.94 1022.14 1022.29 1022.66 1022.99 1023.24 1023.42 1023.59 1023.70 1023.72 1023.82 1023.94 1024.02 1024.10 1024.13 1023.99 1023.91 1023.68 1023.33 1022.79 1022.37 1021.70 1021.26 1020.61 1019.47
1013.22 1013.94 1014.53 1015.42 1015.97 1016.57 1017.16 1017.90 1018.40 1018.74 1019.35 1019.96 1020.38 1020.73 1021.19 1021.64 1021.99 1022.27 1022.49 1022.57 1022.70 1022.87 1023.12 1023.48 1023.78 1024.02 1024.13 1024.18 1024.26 1024.29 1024.29 1024.32 1024.27 1024.11 1023.95 1023.68 1023.34 1022.83 1022.26 1021.80 1021.20 1020.35 1019.36
1014.39 1015.23 1015.90 1016.52 1017.19 1017.85 1018.35 1018.89 1019.28 1019.63 1020.18 1020.71 1021.14 1021.64 1022.14 1022.49 1022.78 1022.96 1023.08 1023.20 1023.34 1023.43 1023.64 1023.80 1024.07 1024.27 1024.40 1024.49 1024.53 1024.57 1024.58 1024.51 1024.33 1024.18 1023.99 1023.67 1023.32 1022.95 1022.32 1021.65 1020.93 1020.22 1019.44
1016.08 1016.75 1017.24 1017.96 1018.61 1019.13 1019.63 1019.98 1020.45 1020.94 1021.39 1021.85 1022.31 1022.76 1023.10 1023.37 1023.66 1023.94 1024.12 1024.22 1024.24 1024.32 1024.45 1024.46 1024.55 1024.71 1024.84 1024.83 1024.76 1024.70 1024.62 1024.44 1024.19 1023.92 1023.60 1023.35 1022.91 1022.51 1021.89 1021.34 1020.64 1019.96 1019.04
1017.79 1018.48 1018.96 1019.46 1019.99 1020.49 1020.89 1021.25 1021.72 1022.18 1022.63 1022.98 1023.44 1023.81 1024.05 1024.27 1024.66 1024.96 1025.10 1025.30 1025.31 1025.22 1025.28 1025.35 1025.33 1025.22 1025.09 1024.97 1024.84 1024.66 1024.53 1024.30 1024.00 1023.60 1023.21 1022.67 1022.28 1022.02 1021.31 1020.76 1020.15 1019.52 1018.80
1019.41 1020.01 1020.43 1020.87 1021.31 1021.80 1022.26 1022.70 1023.15 1023.55 1023.88 1024.23 1024.58 1024.91 1025.11 1025.43 1025.72 1025.98 1026.21 1026.31 1026.11 1025.87 1025.84 1025.96 1026.11 1025.73 1025.37 1025.11 1024.92 1024.71 1024.45 1024.11 1023.68 1023.21 1022.73 1022.26 1021.69 1021.11 1020.63 1020.11 1019.55 1019.02 1018.49
1020.88 1021.38 1021.82 1022.30 1022.82 1023.39 1023.84 1024.26 1024.72 1025.06 1025.37 1025.68 1025.83 1026.02 1026.13 1026.48 1026.69 1026.98 1027.23 1027.37 1026.93 1026.89 1026.62 1026.37 1026.36 1025.72 1025.19 1024.94 1024.68 1024.41 1024.03 1023.50 1023.06 1022.70 1022.16 1021.64 1021.11 1020.59 1020.12 1019.50 1018.98 1018.51 1018.03
1022.45 1022.96 1023.46 1024.06 1024.51 1025.03 1025.53 1025.93 1026.19 1026.37 1026.59 1026.91 1027.12 1027.12 1027.27 1027.42 1027.68 1027.91 1028.12 1028.09 1027.51 1027.15 1026.88 1026.56 1026.04 1025.55 1024.99 1024.60 1024.24 1023.79 1023.27 1022.84 1022.46 1021.95 1021.54 1020.99 1020.41 1019.88 1019.41 1018.90 1018.39 1017.95 1017.57
1024.17 1024.61 1025.11 1025.63 1026.11 1026.67 1027.06 1027.43 1027.82 1028.02 1028.00 1028.16 1028.18 1028.10 1028.11 1028.10 1028.17 1028.23 1028.36 1027.77 1027.22 1026.95 1026.28 1025.86 1025.48 1024.99 1024.52 1024.01 1023.51 1023.03 1022.51 1022.13 1021.78 1021.38 1020.92 1020.45 1019.84 1019.34 1018.88 1018.32 1017.81 1017.37 1017.02
1025.61 1026.10 1026.62 1027.04 1027.58 1027.97 1028.45 1028.80 1029.15 1029.01 1029.16 1028.91 1028.79 1028.75 1028.68 1028.60 1028.47 1028.26 1027.88 1027.31 1026.90 1026.45 1026.02 1025.47 1024.93 1024.43 1023.92 1023.31 1022.65 1022.12 1021.72 1021.39 1020.99 1020.59 1020.26 1019.71 1019.11 1018.50 1018.08 1017.55 1017.11 1016.75 1016.34
Thickness
5620 5613 5606 5601 5597 5595 5596 5599 5601 5596 5594 5592 5592 5588 5583 5579 5578 5575 5567 5562 5559 5555 5551 5547 5546 5534 5526 5519 5513 5501 5495 5491 5483 5478 5473 5466 5461 5457 5451 5444 5437 5430 5424
5618 5613 5613 5608 5603 5606 5607 5605 5601 5595 5593 5589 5585 5576 5577 5579 5575 5571 5566 5562 5558 5550 5545 5540 5536 5526 5519 5510 5504 5493 5485 5478 5472 5465 5460 5455 5450 5446 5440 5431 5425 5418 5412
5620 5617 5610 5607 5607 5611 5608 5603 5599 5594 5588 5585 5583 5578 5572 5572 5568 5568 5561 5556 5553 5545 5540 5535 5523 5518 5508 5500 5492 5483 5476 5468 5459 5455 5449 5443 5438 5431 5425 5417 5412 5405 5398
5625 5619 5613 5610 5608 5604 5600 5599 5596 5593 5589 5586 5584 5579 5573 5568 5564 5561 5554 5548 5542 5536 5529 5522 5515 5510 5504 5494 5482 5473 5466 5454 5446 5442 5432 5426 5420 5415 5407 5400 5399 5391 5386
5629 5623 5622 5617 5612 5607 5603 5598 5593 5591 5590 5585 5578 5572 5568 5564 5558 5553 5546 5539 5531 5525 5515 5508 5501 5493 5483 5477 5471 5458 5449 5440 5430 5423 5415 5408 5402 5396 5389 5383 5379 5377 5374
5627 5624 5619 5613 5606 5603 5598 5595 5591 5588 5584 5579 5573 5569 5562 5558 5552 5545 5538 5528 5522 5514 5503 5493 5485 5476 5470 5457 5453 5441 5433 5424 5416 5407 5399 5392 5384 5377 5370 5363 5359 5358 5360
5626 5618 5611 5605 5600 5595 5591 5587 5583 5581 5576 5570 5565 5558 5552 5549 5541 5533 5527 5517 5508 5498 5490 5476 5470 5457 5452 5441 5434 5426 5418 5411 5403 5394 5384 5374 5367 5359 5353 5347 5340 5336 5331
5615 5609 5603 5598 5592 5587 5583 5578 5572 5566 5561 5557 5552 5547 5541 5533 5525 5516 5509 5500 5489 5479 5470 5463 5452 5443 5436 5427 5418 5410 5402 5395 5388 5380 5370 5359 5350 5343 5334 5330 5324 5321 5319
5605 5600 5594 5588 5582 5576 5569 5563 5557 5551 5546 5540 5534 5530 5524 5512 5504 5498 5491 5478 5467 5456 5447 5439 5431 5423 5416 5410 5403 5394 5385 5376 5368 5361 5353 5344 5335 5325 5316 5310 5301 5298 5305
5595 5588 5582 5577 5572 5564 5557 5550 5544 5539 5531 5522 5516 5509 5501 5492 5484 5477 5470 5460 5449 5438 5428 5419 5411 5404 5397 5391 5383 5374 5366 5358 5351 5342 5332 5323 5314 5304 5294 5284 5278 5275 5272
5582 5575 5570 5564 5556 5549 5541 5536 5529 5519 5509 5500 5492 5484 5478 5472 5464 5458 5450 5442 5432 5421 5412 5403 5394 5387 5379 5370 5361 5354 5348 5338 5330 5322 5312 5303 5294 5285 5275 5266 5257 5252 5250
5570 5562 5555 5548 5541 5534 5528 5519 5511 5502 5492 5481 5472 5462 5454 5448 5442 5436 5428 5420 5412 5404 5393 5383 5374 5367 5360 5352 5344 5335 5325 5317 5308 5300 5291 5283 5274 5264 5255 5247 5240 5235 5228
5554 5544 5536 5530 5524 5518 5511 5501 5492 5485 5476 5465 5456 5444 5432 5424 5417 5411 5405 5398 5390 5381 5371 5362 5357 5350 5342 5332 5322 5313 5302 5292 5283 5274 5267 5260 5251 5243 5236 5230 5224 5220 5220
5535 5525 5519 5511 5505 5498 5491 5484 5476 5468 5459 5449 5438 5425 5413 5402 5394 5387 5380 5374 5366 5359 5350 5342 5334 5327 5318 5308 5298 5288 5277 5266 5257 5250 5243 5236 5229 5222 5216 5210 5207 5204 5206
5518 5508 5500 5493 5484 5473 5463 5457 5451 5444 5441 5432 5418 5405 5392 5382 5373 5366 5360 5353 5345 5337 5327 5318 5309 5301 5291 5282 5272 5261 5251 5242 5234 5226 5219 5213 5207 5201 5194 5188 5184 5183 5180
5494 5483 5476 5470 5461 5453 5442 5431 5424 5418 5413 5406 5396 5385 5373 5363 5353 5346 5339 5331 5322 5313 5303 5293 5281 5271 5263 5255 5246 5237 5227 5217 5209 5202 5194 5187 5183 5178 5173 5167 5162 5158 5161
5470 5461 5453 5446 5439 5433 5424 5411 5403 5395 5388 5381 5372 5363 5353 5342 5333 5324 5316 5308 5300 5288 5277 5266 5256 5246 5237 5230 5221 5212 5203 5193 5183 5176 5167 5161 5155 5153 5148 5145 5140 5139 5142
5445 5438 5432 5422 5416 5408 5401 5391 5384 5377 5365 5355 5346 5337 5328 5318 5309 5301 5291 5283 5275 5266 5256 5244 5232 5221 5212 5203 5194 5185 5176 5166 5157 5149 5142 5135 5128 5126 5125 5121 5118 5118 5121
5421 5412 5404 5397 5389 5381 5374 5366 5359 5351 5341 5332 5323 5313 5302 5292 5283 5275 5266 5257 5248 5239 5228 5218 5206 5196 5186 5176 5166 5156 5146 5137 5128 5120 5112 5108 5102 5099 5098 5096 5096 5095 5097
5392 5385 5379 5370 5362 5354 5346 5339 5330 5321 5312 5302 5293 5283 5274 5265 5256 5246 5236 5227 5219 5209 5198 5189 5179 5168 5156 5146 5136 5126 5117 5108 5100 5094 5089 5083 5079 5075 5075 5074 5073 5075 5078
5366 5357 5350 5342 5334 5326 5319 5312 5303 5294 5285 5276 5265 5255 5247 5238 5228 5217 5208 5197 5187 5178 5168 5157 5147 5136 5125 5115 5106 5097 5088 5079 5073 5069 5065 5062 5056 5053 5052 5053 5055 5056 5059
5338 5330 5323 5315 5308 5299 5291 5283 5275 5266 5258 5249 5239 5228 5218 5207 5197 5187 5178 5167 5157 5148 5137 5126 5115 5104 5093 5083 5075 5067 5061 5053 5046 5042 5040 5037 5036 5035 5035 5036 5038 5041 5045
5311 5303 5296 5288 5280 5271 5263 5255 5246 5237 5227 5217 5209 5200 5191 5178 5168 5158 5147 5136 5127 5116 5105 5095 5085 5075 5066 5057 5048 5041 5036 5031 5025 5020 5018 5017 5016 5016 5018 5023 5028 5032 5037
5284 5276 5268 5259 5252 5244 5235 5225 5217 5210 5201 5190 5179 5171 5161 5150 5137 5125 5115 5106 5096 5085 5074 5064 5056 5048 5040 5030 5021 5015 5011 5008 5004 5001 5000 5001 5003 5006 5010 5016 5022 5027 5032
5256 5249 5242 5234 5225 5215 5206 5197 5187 5178 5171 5160 5151 5142 5133 5120 5109 5097 5087 5077 5068 5058 5049 5039 5031 5023 5015 5008 5002 4997 4993 4990 4989 4989 4990 4992 4996 5001 5006 5012 5018 5024 5029
5233 5225 5216 5208 5198 5189 5179 5169 5158 5151 5142 5134 5124 5113 5102 5091 5081 5070 5062 5053 5044 5034 5025 5016 5009 5002 4996 4992 4989 4986 4984 4984 4985 4987 4988 4991 4996 5001 5006 5012 5017 5022 5029